Skip Page Navigation
NASA JPL Caltech
NASA Logo - Jet Propulsion Laboratory + View the NASA Portal
+ Center for Near-Earth Object Studies
JPL Home Earth Solar System Stars & Galaxies Technology
JPL Solar System Dynamics
BODIES ORBITS EPHEMERIDES TOOLS PHYSICAL DATA DISCOVERY FAQ SITE MAP
JPL Small-Body Database Browser
Search: [ help ]  
212538 (2006 RS95)
Classification: Main-belt Asteroid          SPK-ID: 2212538
Ephemeris | Orbit Diagram | Orbital Elements | Mission Design | Physical Parameters | Discovery Circumstances | Close-Approach Data ]

[ show orbit diagram ]
Orbital Elements at Epoch 2459000.5 (2020-May-31.0) TDB
Reference: JPL 11 (heliocentric ecliptic J2000)
 Element Value Uncertainty (1-sigma)   Units 
e .008254093991232529 5.9104e-08  
a 2.878651004296771 3.0139e-08 au
q 2.854890348339349 1.7894e-07 au
i 6.091732064837116 6.9789e-06 deg
node 15.39051379612564 5.2298e-05 deg
peri 222.0670590887348 0.00037423 deg
M 71.05980495710743 0.00036882 deg
tp 2458648.369647690534
(2019-Jun-13.86964769)
0.001828 TDB
period 1783.947013475846
4.88
2.8016e-05
7.67e-08
d
yr
n .2017997156196782 3.1692e-09 deg/d
Q 2.902411660254192 3.0388e-08 au
  Orbit Determination Parameters
   # obs. used (total)      211  
   data-arc span      7332 days (20.07 yr)  
   first obs. used      1999-04-12  
   last obs. used      2019-05-09  
   planetary ephem.      DE431  
   SB-pert. ephem.      SB431-N16  
   condition code      0  
   norm. resid. RMS      .58952  
   source      ORB  
   producer      Otto Matic  
   solution date      2019-May-30 08:20:21  

Additional Information
 Earth MOID = 1.84707 au 
 Jupiter MOID = 2.06036 au 
 T_jup = 3.287 
[ show covariance matrix ]

Ephemeris | Orbit Diagram | Orbital Elements | Mission Design | Physical Parameters | Discovery Circumstances | Close-Approach Data ]

Physical Parameter Table
Parameter Symbol Value Units Sigma Reference Notes
absolute magnitude H 16.3   n/a MPO440126  

212538 (2006 RS95)          Discovered 2006-Sep-15 by Spacewatch at Kitt Peak
Reference: 20090409/Numbers.arcLast Updated: 2009-04-10

[ show close-approach data ]
Alternate Designations
 2006 RS95 = 1999 GZ62 
Ephemeris | Orbit Diagram | Orbital Elements | Mission Design | Physical Parameters | Discovery Circumstances | Close-Approach Data ]
ABOUT SSD CREDITS/AWARDS PRIVACY/COPYRIGHT GLOSSARY LINKS
FirstGov 2020-Jul-06 07:02 UT
(server date/time)  
NASA Home Page
Site Manager:   Ryan S. Park
Webmaster  Alan B. Chamberlin